owner,sensor,date,latitude,longitude,vertical_datum,wind_speed,wind_to_direction,wind_speed_of_gust,qcFlag 
LOOP,urn:ioos:station:wmo:lopl1:1,2014-12-01T00:12:00Z,28.8850,-90.0250,10.0,4.6,92.0,5.0,'11111222,11111222,11111222' 
LOOP,urn:ioos:station:wmo:lopl1:1,2014-12-01T00:27:00Z,28.8850,-90.0250,10.0,5.2,99.0,5.4,'11111222,11111222,11111222' 
LOOP,urn:ioos:station:wmo:lopl1:1,2014-12-01T00:42:00Z,28.8850,-90.0250,10.0,4.9,99.0,5.2,'11111222,11111222,11111222' 
LOOP,urn:ioos:station:wmo:lopl1:1,2014-12-01T00:57:00Z,28.8850,-90.0250,10.0,5.8,89.0,6.1,'11111222,11111222,11111222' 
LOOP,urn:ioos:station:wmo:lopl1:1,2014-12-01T01:12:00Z,28.8850,-90.0250,10.0,5.7,90.0,6.1,'11111222,11111222,11111222' 
LOOP,urn:ioos:station:wmo:lopl1:1,2014-12-01T01:32:00Z,28.8850,-90.0250,10.0,5.4,89.0,5.7,'11111222,11111222,11111222' 
LOOP,urn:ioos:station:wmo:lopl1:1,2014-12-01T01:47:00Z,28.8850,-90.0250,10.0,5.6,87.0,6.0,'11111222,11111222,11111222' 
LOOP,urn:ioos:station:wmo:lopl1:1,2014-12-01T02:02:00Z,28.8850,-90.0250,10.0,5.7,89.0,6.1,'11111222,11111222,11111222' 
LOOP,urn:ioos:station:wmo:lopl1:1,2014-12-01T02:17:00Z,28.8850,-90.0250,10.0,6.5,91.0,6.7,'11111222,11111222,11111222' 
LOOP,urn:ioos:station:wmo:lopl1:1,2014-12-01T02:32:00Z,28.8850,-90.0250,10.0,6.5,91.0,6.9,'11111222,11111222,11111222' 
LOOP,urn:ioos:station:wmo:lopl1:1,2014-12-01T02:47:00Z,28.8850,-90.0250,10.0,6.7,96.0,6.9,'11111222,11111222,11111222' 
LOOP,urn:ioos:station:wmo:lopl1:1,2014-12-01T03:02:00Z,28.8850,-90.0250,10.0,6.4,90.0,6.9,'11111222,11111222,11111222' 
LOOP,urn:ioos:station:wmo:lopl1:1,2014-12-01T03:17:00Z,28.8850,-90.0250,10.0,6.4,100.0,6.8,'11111222,11111222,11111222' 
LOOP,urn:ioos:station:wmo:lopl1:1,2014-12-01T03:32:00Z,28.8850,-90.0250,10.0,6.3,99.0,6.6,'11111222,11111222,11111222' 
LOOP,urn:ioos:station:wmo:lopl1:1,2014-12-01T03:47:00Z,28.8850,-90.0250,10.0,6.7,108.0,7.4,'11111222,11111222,11111222' 
LOOP,urn:ioos:station:wmo:lopl1:1,2014-12-01T04:02:00Z,28.8850,-90.0250,10.0,7.2,108.0,7.5,'11111222,11111222,11111222' 
LOOP,urn:ioos:station:wmo:lopl1:1,2014-12-01T04:17:00Z,28.8850,-90.0250,10.0,7.0,107.0,7.5,'11111222,11111222,11111222' 
LOOP,urn:ioos:station:wmo:lopl1:1,2014-12-01T04:32:00Z,28.8850,-90.0250,10.0,7.0,103.0,7.5,'11111222,11111222,11111222' 
LOOP,urn:ioos:station:wmo:lopl1:1,2014-12-01T04:47:00Z,28.8850,-90.0250,10.0,7.6,105.0,7.8,'11111222,11111222,11111222' 
LOOP,urn:ioos:station:wmo:lopl1:1,2014-12-01T05:02:00Z,28.8850,-90.0250,10.0,7.4,102.0,7.7,'11111222,11111222,11111222' 
LOOP,urn:ioos:station:wmo:lopl1:1,2014-12-01T05:17:00Z,28.8850,-90.0250,10.0,6.8,104.0,7.2,'11111222,11111222,11111222' 
LOOP,urn:ioos:station:wmo:lopl1:1,2014-12-01T05:32:00Z,28.8850,-90.0250,10.0,6.2,100.0,6.5,'11111222,11111222,11111222' 
LOOP,urn:ioos:station:wmo:lopl1:1,2014-12-01T05:47:00Z,28.8850,-90.0250,10.0,5.8,97.0,6.1,'11111222,11111222,11111222' 
LOOP,urn:ioos:station:wmo:lopl1:1,2014-12-01T06:02:00Z,28.8850,-90.0250,10.0,5.2,101.0,5.7,'11111222,11111222,11111222' 
LOOP,urn:ioos:station:wmo:lopl1:1,2014-12-01T06:17:00Z,28.8850,-90.0250,10.0,4.9,106.0,5.5,'11111222,11111222,11111222' 
LOOP,urn:ioos:station:wmo:lopl1:1,2014-12-01T06:32:00Z,28.8850,-90.0250,10.0,5.0,119.0,5.3,'11111222,11111222,11111222' 
LOOP,urn:ioos:station:wmo:lopl1:1,2014-12-01T06:47:00Z,28.8850,-90.0250,10.0,5.1,101.0,5.5,'11111222,11111222,11111222' 
LOOP,urn:ioos:station:wmo:lopl1:1,2014-12-01T07:02:00Z,28.8850,-90.0250,10.0,6.2,130.0,6.6,'11111222,11111222,11111222' 
LOOP,urn:ioos:station:wmo:lopl1:1,2014-12-01T07:17:00Z,28.8850,-90.0250,10.0,5.6,134.0,5.9,'11111222,11111222,11111222' 
LOOP,urn:ioos:station:wmo:lopl1:1,2014-12-01T07:32:00Z,28.8850,-90.0250,10.0,5.0,125.0,5.2,'11111222,11111222,11111222' 
LOOP,urn:ioos:station:wmo:lopl1:1,2014-12-01T07:47:00Z,28.8850,-90.0250,10.0,5.3,120.0,5.6,'11111222,11111222,11111222' 
LOOP,urn:ioos:station:wmo:lopl1:1,2014-12-01T08:02:00Z,28.8850,-90.0250,10.0,5.8,119.0,6.2,'11111222,11111222,11111222' 
LOOP,urn:ioos:station:wmo:lopl1:1,2014-12-01T08:17:00Z,28.8850,-90.0250,10.0,5.7,117.0,6.4,'11111222,11111222,11111222' 
LOOP,urn:ioos:station:wmo:lopl1:1,2014-12-01T08:37:00Z,28.8850,-90.0250,10.0,4.6,103.0,5.5,'11111222,11111222,11111222' 
LOOP,urn:ioos:station:wmo:lopl1:1,2014-12-01T08:52:00Z,28.8850,-90.0250,10.0,4.7,114.0,5.2,'11111222,11111222,11111222' 
LOOP,urn:ioos:station:wmo:lopl1:1,2014-12-01T09:07:00Z,28.8850,-90.0250,10.0,5.3,120.0,5.9,'11111222,11111222,11111222' 
LOOP,urn:ioos:station:wmo:lopl1:1,2014-12-01T09:22:00Z,28.8850,-90.0250,10.0,5.6,122.0,6.6,'11111222,11111222,11111222' 
LOOP,urn:ioos:station:wmo:lopl1:1,2014-12-01T09:37:00Z,28.8850,-90.0250,10.0,7.6,117.0,9.2,'11111222,11111222,11111222' 
LOOP,urn:ioos:station:wmo:lopl1:1,2014-12-01T09:52:00Z,28.8850,-90.0250,10.0,8.7,115.0,9.5,'11111222,11111222,11111222' 
LOOP,urn:ioos:station:wmo:lopl1:1,2014-12-01T10:07:00Z,28.8850,-90.0250,10.0,8.0,112.0,8.8,'11111222,11111222,11111222' 
LOOP,urn:ioos:station:wmo:lopl1:1,2014-12-01T10:22:00Z,28.8850,-90.0250,10.0,7.6,111.0,8.6,'11111222,11111222,11111222' 
LOOP,urn:ioos:station:wmo:lopl1:1,2014-12-01T10:37:00Z,28.8850,-90.0250,10.0,7.9,111.0,8.7,'11111222,11111222,11111222' 
LOOP,urn:ioos:station:wmo:lopl1:1,2014-12-01T10:52:00Z,28.8850,-90.0250,10.0,8.4,106.0,9.0,'11111222,11111222,11111222' 
LOOP,urn:ioos:station:wmo:lopl1:1,2014-12-01T11:07:00Z,28.8850,-90.0250,10.0,7.8,108.0,8.5,'11111222,11111222,11111222' 
LOOP,urn:ioos:station:wmo:lopl1:1,2014-12-01T11:22:00Z,28.8850,-90.0250,10.0,7.8,111.0,8.3,'11111222,11111222,11111222' 
LOOP,urn:ioos:station:wmo:lopl1:1,2014-12-01T11:37:00Z,28.8850,-90.0250,10.0,8.2,109.0,9.0,'11111222,11111222,11111222' 
LOOP,urn:ioos:station:wmo:lopl1:1,2014-12-01T11:52:00Z,28.8850,-90.0250,10.0,8.0,111.0,8.7,'11111222,11111222,11111222' 
LOOP,urn:ioos:station:wmo:lopl1:1,2014-12-01T12:07:00Z,28.8850,-90.0250,10.0,7.8,110.0,8.6,'11111222,11111222,11111222' 
LOOP,urn:ioos:station:wmo:lopl1:1,2014-12-01T12:22:00Z,28.8850,-90.0250,10.0,7.8,111.0,8.4,'11111222,11111222,11111222' 
LOOP,urn:ioos:station:wmo:lopl1:1,2014-12-01T12:37:00Z,28.8850,-90.0250,10.0,8.2,111.0,8.8,'11111222,11111222,11111222' 
LOOP,urn:ioos:station:wmo:lopl1:1,2014-12-01T12:52:00Z,28.8850,-90.0250,10.0,7.6,111.0,8.2,'11111222,11111222,11111222' 
LOOP,urn:ioos:station:wmo:lopl1:1,2014-12-01T13:07:00Z,28.8850,-90.0250,10.0,7.4,109.0,8.0,'11111222,11111222,11111222' 
LOOP,urn:ioos:station:wmo:lopl1:1,2014-12-01T13:22:00Z,28.8850,-90.0250,10.0,7.4,110.0,7.9,'11111222,11111222,11111222' 
LOOP,urn:ioos:station:wmo:lopl1:1,2014-12-01T13:37:00Z,28.8850,-90.0250,10.0,7.6,111.0,8.0,'11111222,11111222,11111222' 
LOOP,urn:ioos:station:wmo:lopl1:1,2014-12-01T13:52:00Z,28.8850,-90.0250,10.0,7.8,114.0,8.5,'11111222,11111222,11111222' 
LOOP,urn:ioos:station:wmo:lopl1:1,2014-12-01T14:07:00Z,28.8850,-90.0250,10.0,8.1,112.0,8.8,'11111222,11111222,11111222' 
LOOP,urn:ioos:station:wmo:lopl1:1,2014-12-01T14:22:00Z,28.8850,-90.0250,10.0,7.9,110.0,8.6,'11111222,11111222,11111222' 
LOOP,urn:ioos:station:wmo:lopl1:1,2014-12-01T14:37:00Z,28.8850,-90.0250,10.0,7.9,109.0,8.7,'11111222,11111222,11111222' 
LOOP,urn:ioos:station:wmo:lopl1:1,2014-12-01T14:52:00Z,28.8850,-90.0250,10.0,8.2,109.0,9.0,'11111222,11111222,11111222' 
LOOP,urn:ioos:station:wmo:lopl1:1,2014-12-01T15:07:00Z,28.8850,-90.0250,10.0,7.9,110.0,8.5,'11111222,11111222,11111222' 
LOOP,urn:ioos:station:wmo:lopl1:1,2014-12-01T15:22:00Z,28.8850,-90.0250,10.0,7.9,108.0,8.4,'11111222,11111222,11111222' 
LOOP,urn:ioos:station:wmo:lopl1:1,2014-12-01T15:37:00Z,28.8850,-90.0250,10.0,7.7,107.0,8.4,'11111222,11111222,11111222' 
LOOP,urn:ioos:station:wmo:lopl1:1,2014-12-01T15:52:00Z,28.8850,-90.0250,10.0,6.9,104.0,7.8,'11111222,11111222,11111222' 
LOOP,urn:ioos:station:wmo:lopl1:1,2014-12-01T16:12:00Z,28.8850,-90.0250,10.0,6.2,103.0,7.0,'11111222,11111222,11111222' 
LOOP,urn:ioos:station:wmo:lopl1:1,2014-12-01T16:27:00Z,28.8850,-90.0250,10.0,6.6,104.0,7.2,'11111222,11111222,11111222' 
LOOP,urn:ioos:station:wmo:lopl1:1,2014-12-01T16:42:00Z,28.8850,-90.0250,10.0,6.4,104.0,7.2,'11111222,11111222,11111222' 
LOOP,urn:ioos:station:wmo:lopl1:1,2014-12-01T16:57:00Z,28.8850,-90.0250,10.0,5.9,105.0,6.6,'11111222,11111222,11111222' 
LOOP,urn:ioos:station:wmo:lopl1:1,2014-12-01T17:12:00Z,28.8850,-90.0250,10.0,6.2,104.0,6.8,'11111222,11111222,11111222' 
LOOP,urn:ioos:station:wmo:lopl1:1,2014-12-01T17:32:00Z,28.8850,-90.0250,10.0,6.0,95.0,6.6,'11111222,11111222,11111222' 
LOOP,urn:ioos:station:wmo:lopl1:1,2014-12-01T17:47:00Z,28.8850,-90.0250,10.0,5.6,94.0,6.4,'11111222,11111222,11111222' 
LOOP,urn:ioos:station:wmo:lopl1:1,2014-12-01T18:02:00Z,28.8850,-90.0250,10.0,5.8,93.0,6.4,'11111222,11111222,11111222' 
LOOP,urn:ioos:station:wmo:lopl1:1,2014-12-01T18:17:00Z,28.8850,-90.0250,10.0,6.0,96.0,6.9,'11111222,11111222,11111222' 
LOOP,urn:ioos:station:wmo:lopl1:1,2014-12-01T18:32:00Z,28.8850,-90.0250,10.0,6.6,96.0,7.4,'11111222,11111222,11111222' 
LOOP,urn:ioos:station:wmo:lopl1:1,2014-12-01T18:47:00Z,28.8850,-90.0250,10.0,6.1,84.0,6.8,'11111222,11111222,11111222' 
LOOP,urn:ioos:station:wmo:lopl1:1,2014-12-01T19:02:00Z,28.8850,-90.0250,10.0,6.2,85.0,6.9,'11111222,11111222,11111222' 
LOOP,urn:ioos:station:wmo:lopl1:1,2014-12-01T19:17:00Z,28.8850,-90.0250,10.0,6.3,88.0,6.8,'11111222,11111222,11111222' 
LOOP,urn:ioos:station:wmo:lopl1:1,2014-12-01T19:32:00Z,28.8850,-90.0250,10.0,6.3,85.0,7.1,'11111222,11111222,11111222' 
LOOP,urn:ioos:station:wmo:lopl1:1,2014-12-01T19:47:00Z,28.8850,-90.0250,10.0,6.5,83.0,7.4,'11111222,11111222,11111222' 
LOOP,urn:ioos:station:wmo:lopl1:1,2014-12-01T20:02:00Z,28.8850,-90.0250,10.0,6.4,79.0,7.2,'11111222,11111222,11111222' 
LOOP,urn:ioos:station:wmo:lopl1:1,2014-12-01T20:17:00Z,28.8850,-90.0250,10.0,6.4,82.0,7.4,'11111222,11111222,11111222' 
LOOP,urn:ioos:station:wmo:lopl1:1,2014-12-01T20:42:00Z,28.8850,-90.0250,10.0,6.9,82.0,7.9,'11111222,11111222,11111222' 
LOOP,urn:ioos:station:wmo:lopl1:1,2014-12-01T20:57:00Z,28.8850,-90.0250,10.0,7.1,78.0,8.2,'11111222,11111222,11111222' 
LOOP,urn:ioos:station:wmo:lopl1:1,2014-12-01T21:12:00Z,28.8850,-90.0250,10.0,7.3,77.0,8.4,'11111222,11111222,11111222' 
LOOP,urn:ioos:station:wmo:lopl1:1,2014-12-01T21:27:00Z,28.8850,-90.0250,10.0,7.5,81.0,8.5,'11111222,11111222,11111222' 
LOOP,urn:ioos:station:wmo:lopl1:1,2014-12-01T21:42:00Z,28.8850,-90.0250,10.0,7.2,79.0,8.2,'11111222,11111222,11111222' 
LOOP,urn:ioos:station:wmo:lopl1:1,2014-12-01T21:57:00Z,28.8850,-90.0250,10.0,7.2,84.0,8.4,'11111222,11111222,11111222' 
LOOP,urn:ioos:station:wmo:lopl1:1,2014-12-01T22:12:00Z,28.8850,-90.0250,10.0,6.9,78.0,8.9,'11111222,11111222,11111222' 
LOOP,urn:ioos:station:wmo:lopl1:1,2014-12-01T22:27:00Z,28.8850,-90.0250,10.0,6.5,75.0,8.0,'11111222,11111222,11111222' 
LOOP,urn:ioos:station:wmo:lopl1:1,2014-12-01T22:47:00Z,28.8850,-90.0250,10.0,6.3,76.0,7.5,'11111222,11111222,11111222' 
LOOP,urn:ioos:station:wmo:lopl1:1,2014-12-01T23:02:00Z,28.8850,-90.0250,10.0,6.4,76.0,7.4,'11111222,11111222,11111222' 
LOOP,urn:ioos:station:wmo:lopl1:1,2014-12-01T23:17:00Z,28.8850,-90.0250,10.0,6.1,79.0,7.4,'11111222,11111222,11111222' 
LOOP,urn:ioos:station:wmo:lopl1:1,2014-12-01T23:32:00Z,28.8850,-90.0250,10.0,6.2,81.0,7.4,'11111222,11111222,11111222' 
LOOP,urn:ioos:station:wmo:lopl1:1,2014-12-01T23:47:00Z,28.8850,-90.0250,10.0,5.8,76.0,6.7,'11111222,11111222,11111222' 
LOOP,urn:ioos:station:wmo:lopl1:1,2014-12-02T00:02:00Z,28.8850,-90.0250,10.0,6.1,79.0,7.5,'11111222,11111222,11111222' 
LOOP,urn:ioos:station:wmo:lopl1:1,2014-12-02T00:17:00Z,28.8850,-90.0250,10.0,5.7,74.0,6.5,'11111222,11111222,11111222' 
LOOP,urn:ioos:station:wmo:lopl1:1,2014-12-02T00:32:00Z,28.8850,-90.0250,10.0,6.2,68.0,7.2,'11111222,11111222,11111222' 
LOOP,urn:ioos:station:wmo:lopl1:1,2014-12-02T00:47:00Z,28.8850,-90.0250,10.0,6.1,63.0,6.9,'11111222,11111222,11111222' 
LOOP,urn:ioos:station:wmo:lopl1:1,2014-12-02T01:02:00Z,28.8850,-90.0250,10.0,6.5,65.0,7.2,'11111222,11111222,11111222' 
LOOP,urn:ioos:station:wmo:lopl1:1,2014-12-02T01:17:00Z,28.8850,-90.0250,10.0,6.9,69.0,7.8,'11111222,11111222,11111222' 
LOOP,urn:ioos:station:wmo:lopl1:1,2014-12-02T01:32:00Z,28.8850,-90.0250,10.0,7.0,68.0,8.4,'11111222,11111222,11111222' 
LOOP,urn:ioos:station:wmo:lopl1:1,2014-12-02T01:47:00Z,28.8850,-90.0250,10.0,7.1,67.0,8.2,'11111222,11111222,11111222' 
LOOP,urn:ioos:station:wmo:lopl1:1,2014-12-02T02:02:00Z,28.8850,-90.0250,10.0,7.2,66.0,9.0,'11111222,11111222,11111222' 
LOOP,urn:ioos:station:wmo:lopl1:1,2014-12-02T02:17:00Z,28.8850,-90.0250,10.0,7.6,69.0,8.7,'11111222,11111222,11111222' 
LOOP,urn:ioos:station:wmo:lopl1:1,2014-12-02T02:32:00Z,28.8850,-90.0250,10.0,7.3,70.0,8.7,'11111222,11111222,11111222' 
LOOP,urn:ioos:station:wmo:lopl1:1,2014-12-02T02:47:00Z,28.8850,-90.0250,10.0,7.0,70.0,8.6,'11111222,11111222,11111222' 
LOOP,urn:ioos:station:wmo:lopl1:1,2014-12-02T03:02:00Z,28.8850,-90.0250,10.0,6.5,71.0,7.4,'11111222,11111222,11111222' 
LOOP,urn:ioos:station:wmo:lopl1:1,2014-12-02T03:17:00Z,28.8850,-90.0250,10.0,6.4,75.0,7.7,'11111222,11111222,11111222' 
LOOP,urn:ioos:station:wmo:lopl1:1,2014-12-02T03:37:00Z,28.8850,-90.0250,10.0,8.1,84.0,9.0,'11111222,11111222,11111222' 
LOOP,urn:ioos:station:wmo:lopl1:1,2014-12-02T03:52:00Z,28.8850,-90.0250,10.0,7.5,84.0,8.9,'11111222,11111222,11111222' 
LOOP,urn:ioos:station:wmo:lopl1:1,2014-12-02T04:07:00Z,28.8850,-90.0250,10.0,6.9,83.0,8.2,'11111222,11111222,11111222' 
LOOP,urn:ioos:station:wmo:lopl1:1,2014-12-02T04:22:00Z,28.8850,-90.0250,10.0,6.7,83.0,8.5,'11111222,11111222,11111222' 
LOOP,urn:ioos:station:wmo:lopl1:1,2014-12-02T04:37:00Z,28.8850,-90.0250,10.0,7.0,81.0,8.6,'11111222,11111222,11111222' 
LOOP,urn:ioos:station:wmo:lopl1:1,2014-12-02T04:52:00Z,28.8850,-90.0250,10.0,6.2,81.0,7.5,'11111222,11111222,11111222' 
LOOP,urn:ioos:station:wmo:lopl1:1,2014-12-02T05:07:00Z,28.8850,-90.0250,10.0,6.8,78.0,7.9,'11111222,11111222,11111222' 
LOOP,urn:ioos:station:wmo:lopl1:1,2014-12-02T05:22:00Z,28.8850,-90.0250,10.0,7.4,82.0,8.7,'11111222,11111222,11111222' 
LOOP,urn:ioos:station:wmo:lopl1:1,2014-12-02T05:37:00Z,28.8850,-90.0250,10.0,8.0,89.0,8.8,'11111222,11111222,11111222' 
LOOP,urn:ioos:station:wmo:lopl1:1,2014-12-02T05:52:00Z,28.8850,-90.0250,10.0,7.7,90.0,8.9,'11111222,11111222,11111222' 
LOOP,urn:ioos:station:wmo:lopl1:1,2014-12-02T06:07:00Z,28.8850,-90.0250,10.0,7.4,84.0,8.3,'11111222,11111222,11111222' 
LOOP,urn:ioos:station:wmo:lopl1:1,2014-12-02T06:22:00Z,28.8850,-90.0250,10.0,7.3,89.0,8.3,'11111222,11111222,11111222' 
LOOP,urn:ioos:station:wmo:lopl1:1,2014-12-02T06:37:00Z,28.8850,-90.0250,10.0,7.6,91.0,8.2,'11111222,11111222,11111222' 
LOOP,urn:ioos:station:wmo:lopl1:1,2014-12-02T06:57:00Z,28.8850,-90.0250,10.0,6.6,82.0,7.6,'11111222,11111222,11111222' 
LOOP,urn:ioos:station:wmo:lopl1:1,2014-12-02T07:12:00Z,28.8850,-90.0250,10.0,5.9,86.0,7.0,'11111222,11111222,11111222' 
LOOP,urn:ioos:station:wmo:lopl1:1,2014-12-02T07:27:00Z,28.8850,-90.0250,10.0,5.1,77.0,6.5,'11111222,11111222,11111222' 
LOOP,urn:ioos:station:wmo:lopl1:1,2014-12-02T07:42:00Z,28.8850,-90.0250,10.0,5.2,79.0,6.3,'11111222,11111222,11111222' 
LOOP,urn:ioos:station:wmo:lopl1:1,2014-12-02T07:57:00Z,28.8850,-90.0250,10.0,4.9,74.0,5.8,'11111222,11111222,11111222' 
LOOP,urn:ioos:station:wmo:lopl1:1,2014-12-02T08:12:00Z,28.8850,-90.0250,10.0,5.0,74.0,6.1,'11111222,11111222,11111222' 
LOOP,urn:ioos:station:wmo:lopl1:1,2014-12-02T08:27:00Z,28.8850,-90.0250,10.0,5.3,66.0,6.1,'11111222,11111222,11111222' 
LOOP,urn:ioos:station:wmo:lopl1:1,2014-12-02T08:42:00Z,28.8850,-90.0250,10.0,5.2,65.0,6.0,'11111222,11111222,11111222' 
LOOP,urn:ioos:station:wmo:lopl1:1,2014-12-02T08:57:00Z,28.8850,-90.0250,10.0,5.1,64.0,5.9,'11111222,11111222,11111222' 
LOOP,urn:ioos:station:wmo:lopl1:1,2014-12-02T09:12:00Z,28.8850,-90.0250,10.0,5.7,66.0,6.6,'11111222,11111222,11111222' 
LOOP,urn:ioos:station:wmo:lopl1:1,2014-12-02T09:27:00Z,28.8850,-90.0250,10.0,5.5,64.0,6.6,'11111222,11111222,11111222' 
LOOP,urn:ioos:station:wmo:lopl1:1,2014-12-02T09:42:00Z,28.8850,-90.0250,10.0,6.2,68.0,6.9,'11111222,11111222,11111222' 
LOOP,urn:ioos:station:wmo:lopl1:1,2014-12-02T09:57:00Z,28.8850,-90.0250,10.0,5.4,70.0,6.4,'11111222,11111222,11111222' 
LOOP,urn:ioos:station:wmo:lopl1:1,2014-12-02T10:12:00Z,28.8850,-90.0250,10.0,5.4,67.0,6.4,'11111222,11111222,11111222' 
LOOP,urn:ioos:station:wmo:lopl1:1,2014-12-02T10:27:00Z,28.8850,-90.0250,10.0,5.2,68.0,5.8,'11111222,11111222,11111222' 
LOOP,urn:ioos:station:wmo:lopl1:1,2014-12-02T10:42:00Z,28.8850,-90.0250,10.0,4.9,70.0,5.9,'11111222,11111222,11111222' 
LOOP,urn:ioos:station:wmo:lopl1:1,2014-12-02T10:57:00Z,28.8850,-90.0250,10.0,4.8,69.0,5.4,'11111222,11111222,11111222' 
LOOP,urn:ioos:station:wmo:lopl1:1,2014-12-02T11:12:00Z,28.8850,-90.0250,10.0,5.0,67.0,5.8,'11111222,11111222,11111222' 
LOOP,urn:ioos:station:wmo:lopl1:1,2014-12-02T11:27:00Z,28.8850,-90.0250,10.0,5.4,67.0,6.1,'11111222,11111222,11111222' 
LOOP,urn:ioos:station:wmo:lopl1:1,2014-12-02T11:42:00Z,28.8850,-90.0250,10.0,5.6,66.0,6.1,'11111222,11111222,11111222' 
LOOP,urn:ioos:station:wmo:lopl1:1,2014-12-02T11:57:00Z,28.8850,-90.0250,10.0,5.8,59.0,7.1,'11111222,11111222,11111222' 
LOOP,urn:ioos:station:wmo:lopl1:1,2014-12-02T12:12:00Z,28.8850,-90.0250,10.0,4.8,35.0,6.5,'11111222,11111222,11111222' 
LOOP,urn:ioos:station:wmo:lopl1:1,2014-12-02T12:27:00Z,28.8850,-90.0250,10.0,5.2,62.0,6.4,'11111222,11111222,11111222' 
LOOP,urn:ioos:station:wmo:lopl1:1,2014-12-02T12:42:00Z,28.8850,-90.0250,10.0,4.9,65.0,6.9,'11111222,11111222,11111222' 
LOOP,urn:ioos:station:wmo:lopl1:1,2014-12-02T12:57:00Z,28.8850,-90.0250,10.0,4.6,45.0,6.5,'11111222,11111222,11111222' 
LOOP,urn:ioos:station:wmo:lopl1:1,2014-12-02T13:12:00Z,28.8850,-90.0250,10.0,4.7,38.0,5.9,'11111222,11111222,11111222' 
LOOP,urn:ioos:station:wmo:lopl1:1,2014-12-02T13:27:00Z,28.8850,-90.0250,10.0,5.1,33.0,6.0,'11111222,11111222,11111222' 
LOOP,urn:ioos:station:wmo:lopl1:1,2014-12-02T13:42:00Z,28.8850,-90.0250,10.0,5.9,32.0,7.1,'11111222,11111222,11111222' 
LOOP,urn:ioos:station:wmo:lopl1:1,2014-12-02T13:57:00Z,28.8850,-90.0250,10.0,6.2,25.0,7.1,'11111222,11111222,11111222' 
LOOP,urn:ioos:station:wmo:lopl1:1,2014-12-02T14:17:00Z,28.8850,-90.0250,10.0,7.9,14.0,8.6,'11111222,11111222,11111222' 
LOOP,urn:ioos:station:wmo:lopl1:1,2014-12-02T14:32:00Z,28.8850,-90.0250,10.0,8.0,15.0,8.9,'11111222,11111222,11111222' 
LOOP,urn:ioos:station:wmo:lopl1:1,2014-12-02T14:47:00Z,28.8850,-90.0250,10.0,7.2,19.0,8.6,'11111222,11111222,11111222' 
LOOP,urn:ioos:station:wmo:lopl1:1,2014-12-02T15:02:00Z,28.8850,-90.0250,10.0,7.5,14.0,8.6,'11111222,11111222,11111222' 
LOOP,urn:ioos:station:wmo:lopl1:1,2014-12-02T15:17:00Z,28.8850,-90.0250,10.0,8.6,13.0,9.4,'11111222,11111222,11111222' 
LOOP,urn:ioos:station:wmo:lopl1:1,2014-12-02T15:32:00Z,28.8850,-90.0250,10.0,8.7,15.0,9.5,'11111222,11111222,11111222' 
LOOP,urn:ioos:station:wmo:lopl1:1,2014-12-02T15:47:00Z,28.8850,-90.0250,10.0,8.5,15.0,9.4,'11111222,11111222,11111222' 
LOOP,urn:ioos:station:wmo:lopl1:1,2014-12-02T16:02:00Z,28.8850,-90.0250,10.0,8.7,18.0,9.5,'11111222,11111222,11111222' 
LOOP,urn:ioos:station:wmo:lopl1:1,2014-12-02T16:17:00Z,28.8850,-90.0250,10.0,8.8,20.0,10.3,'11111222,11111222,11111222' 
LOOP,urn:ioos:station:wmo:lopl1:1,2014-12-02T16:32:00Z,28.8850,-90.0250,10.0,7.6,25.0,9.6,'11111222,11111222,11111222' 
LOOP,urn:ioos:station:wmo:lopl1:1,2014-12-02T16:47:00Z,28.8850,-90.0250,10.0,7.9,31.0,9.1,'11111222,11111222,11111222' 
LOOP,urn:ioos:station:wmo:lopl1:1,2014-12-02T17:02:00Z,28.8850,-90.0250,10.0,6.5,30.0,8.5,'11111222,11111222,11111222' 
LOOP,urn:ioos:station:wmo:lopl1:1,2014-12-02T17:27:00Z,28.8850,-90.0250,10.0,7.2,22.0,8.6,'11111222,11111222,11111222' 
LOOP,urn:ioos:station:wmo:lopl1:1,2014-12-02T17:42:00Z,28.8850,-90.0250,10.0,6.9,29.0,8.3,'11111222,11111222,11111222' 
LOOP,urn:ioos:station:wmo:lopl1:1,2014-12-02T18:07:00Z,28.8850,-90.0250,10.0,5.9,37.0,7.6,'11111222,11111222,11111222' 
LOOP,urn:ioos:station:wmo:lopl1:1,2014-12-02T18:22:00Z,28.8850,-90.0250,10.0,6.5,29.0,7.7,'11111222,11111222,11111222' 
LOOP,urn:ioos:station:wmo:lopl1:1,2014-12-02T18:37:00Z,28.8850,-90.0250,10.0,7.2,29.0,8.2,'11111222,11111222,11111222' 
LOOP,urn:ioos:station:wmo:lopl1:1,2014-12-02T18:52:00Z,28.8850,-90.0250,10.0,7.1,32.0,8.4,'11111222,11111222,11111222' 
LOOP,urn:ioos:station:wmo:lopl1:1,2014-12-02T19:07:00Z,28.8850,-90.0250,10.0,6.2,41.0,8.3,'11111222,11111222,11111222' 
LOOP,urn:ioos:station:wmo:lopl1:1,2014-12-02T19:22:00Z,28.8850,-90.0250,10.0,6.5,34.0,8.1,'11111222,11111222,11111222' 
LOOP,urn:ioos:station:wmo:lopl1:1,2014-12-02T19:37:00Z,28.8850,-90.0250,10.0,6.8,27.0,7.7,'11111222,11111222,11111222' 
LOOP,urn:ioos:station:wmo:lopl1:1,2014-12-02T19:52:00Z,28.8850,-90.0250,10.0,6.5,27.0,7.5,'11111222,11111222,11111222' 
LOOP,urn:ioos:station:wmo:lopl1:1,2014-12-02T20:07:00Z,28.8850,-90.0250,10.0,6.0,30.0,7.5,'11111222,11111222,11111222' 
LOOP,urn:ioos:station:wmo:lopl1:1,2014-12-02T20:22:00Z,28.8850,-90.0250,10.0,6.2,22.0,7.1,'11111222,11111222,11111222' 
LOOP,urn:ioos:station:wmo:lopl1:1,2014-12-02T20:37:00Z,28.8850,-90.0250,10.0,6.0,29.0,7.5,'11111222,11111222,11111222' 
LOOP,urn:ioos:station:wmo:lopl1:1,2014-12-02T20:52:00Z,28.8850,-90.0250,10.0,6.5,34.0,8.0,'11111222,11111222,11111222' 
LOOP,urn:ioos:station:wmo:lopl1:1,2014-12-02T21:12:00Z,28.8850,-90.0250,10.0,5.5,30.0,7.2,'11111222,11111222,11111222' 
LOOP,urn:ioos:station:wmo:lopl1:1,2014-12-02T21:27:00Z,28.8850,-90.0250,10.0,5.8,39.0,7.5,'11111222,11111222,11111222' 
LOOP,urn:ioos:station:wmo:lopl1:1,2014-12-02T21:42:00Z,28.8850,-90.0250,10.0,5.4,35.0,7.5,'11111222,11111222,11111222' 
LOOP,urn:ioos:station:wmo:lopl1:1,2014-12-02T21:57:00Z,28.8850,-90.0250,10.0,6.1,33.0,7.9,'11111222,11111222,11111222' 
LOOP,urn:ioos:station:wmo:lopl1:1,2014-12-02T22:12:00Z,28.8850,-90.0250,10.0,5.3,48.0,7.2,'11111222,11111222,11111222' 
LOOP,urn:ioos:station:wmo:lopl1:1,2014-12-02T22:27:00Z,28.8850,-90.0250,10.0,5.3,53.0,6.7,'11111222,11111222,11111222' 
LOOP,urn:ioos:station:wmo:lopl1:1,2014-12-02T22:42:00Z,28.8850,-90.0250,10.0,5.0,54.0,6.4,'11111222,11111222,11111222' 
LOOP,urn:ioos:station:wmo:lopl1:1,2014-12-02T22:57:00Z,28.8850,-90.0250,10.0,5.3,31.0,6.9,'11111222,11111222,11111222' 
LOOP,urn:ioos:station:wmo:lopl1:1,2014-12-02T23:12:00Z,28.8850,-90.0250,10.0,5.6,30.0,7.2,'11111222,11111222,11111222' 
LOOP,urn:ioos:station:wmo:lopl1:1,2014-12-02T23:27:00Z,28.8850,-90.0250,10.0,6.0,35.0,7.6,'11111222,11111222,11111222' 
LOOP,urn:ioos:station:wmo:lopl1:1,2014-12-02T23:42:00Z,28.8850,-90.0250,10.0,5.2,36.0,6.5,'11111222,11111222,11111222' 
LOOP,urn:ioos:station:wmo:lopl1:1,2014-12-02T23:57:00Z,28.8850,-90.0250,10.0,4.7,38.0,6.5,'11111222,11111222,11111222' 
LOOP,urn:ioos:station:wmo:lopl1:1,2014-12-03T00:12:00Z,28.8850,-90.0250,10.0,4.9,41.0,6.2,'11111222,11111222,11111222' 
LOOP,urn:ioos:station:wmo:lopl1:1,2014-12-03T00:32:00Z,28.8850,-90.0250,10.0,4.9,50.0,5.8,'11111222,11111222,11111222' 
LOOP,urn:ioos:station:wmo:lopl1:1,2014-12-03T00:47:00Z,28.8850,-90.0250,10.0,5.2,50.0,6.7,'11111222,11111222,11111222' 
LOOP,urn:ioos:station:wmo:lopl1:1,2014-12-03T01:02:00Z,28.8850,-90.0250,10.0,5.3,27.0,6.4,'11111222,11111222,11111222' 
LOOP,urn:ioos:station:wmo:lopl1:1,2014-12-03T01:17:00Z,28.8850,-90.0250,10.0,5.2,20.0,6.3,'11111222,11111222,11111222' 
LOOP,urn:ioos:station:wmo:lopl1:1,2014-12-03T01:32:00Z,28.8850,-90.0250,10.0,5.2,28.0,6.2,'11111222,11111222,11111222' 
LOOP,urn:ioos:station:wmo:lopl1:1,2014-12-03T01:47:00Z,28.8850,-90.0250,10.0,5.2,28.0,6.0,'11111222,11111222,11111222' 
LOOP,urn:ioos:station:wmo:lopl1:1,2014-12-03T02:02:00Z,28.8850,-90.0250,10.0,4.6,22.0,5.5,'11111222,11111222,11111222' 
LOOP,urn:ioos:station:wmo:lopl1:1,2014-12-03T02:17:00Z,28.8850,-90.0250,10.0,5.2,23.0,5.9,'11111222,11111222,11111222' 
LOOP,urn:ioos:station:wmo:lopl1:1,2014-12-03T02:32:00Z,28.8850,-90.0250,10.0,4.3,27.0,5.2,'11111222,11111222,11111222' 
LOOP,urn:ioos:station:wmo:lopl1:1,2014-12-03T02:47:00Z,28.8850,-90.0250,10.0,4.5,29.0,5.3,'11111222,11111222,11111222' 